星链-3718 (STARLINK-3718 )

导读

STARLINK-3718是美国SpaceX公司星链卫星互联网星座的成员,于北京时间2022年3月19日发射入轨,定轨于约550公里高度的近地轨道。作为星链星座规模化部署中的一颗,它采用平板设计与离子推进技术,承担全球高速互联网接入服务,尤其可为偏远地区提供低延迟宽带连接,支撑起星链全球覆盖的网络架构。

Basic Information
目录编号:
52132
目录名称:
STARLINK-3718
国际标识:
2022-029AW
轨道中心:
EARTH
卫星名称:
星链-3718
卫星全名:
星链-3718 (STARLINK-3718 )
卫星状态:
在轨 (已飞行1551 天)
发射日期:
2022-03-19 UTC
国别 :
美国 (US)
星等 :
--
Orbit Information
数据来源 国际轨道数据 AOE轨道数据
星历时间 2026-06-17T12:12:06+0800
13小时前
查看轨道信息
2026-06-15T23:00:00+0800
2天前
查看轨道信息
半长轴 6917.909km 6917.92km
偏心率 0.0001305 0.0001398
轨道倾角 53.160° 53.159°
近地点辐角 87.587° 81.273°
升交点赤经 342.414° 349.384°
平近点角 272.527° 134.532°
近地点 538.869km 538.815km
远地点 540.675km 540.751km
周期 95.438分钟 95.438分钟
每日圈数 15.088308 15.088272
Detailed Information
固有亮度:
5
最大亮度:
2.5
卫星平台:
Starlink v1.5
覆盖范围:
全球
运营商:
太空探索技术公司
运营商所在国:
美国
制造商(研发单位):
太空探索技术公司
制造商所在国:
美国
使用方式:
暂无
Satellite Introduction
星链(Starlink)计划是由太空探索技术公司(SpaceX)提出的一个巨型低轨卫星互联网星座项目,计划在2019年至2024年间在太空搭建由约1.2万颗卫星组成的“星链”网络,其中1584颗将部署在地球上空550千米处的近地轨道,并从2020年开始工作。该卫星仍在工作。
2D Orbit Map
3D Orbit Map
Orbit Altitude Analysis Chart
Orbit Inclination Analysis Chart
Orbit Comprehensive Analysis Chart
View Comprehensive Chart